Regional Weather Roundup
Issued by NWS

Home | Current Version | Previous Version | Graphics & Text | Print | Product List | Glossary On
Versions: 1 2 3 4 5 6 7 8 9 10 11 12 13 14 15 16 17 18 19 20 21 22 23 24 25 26 27 28 29 30 31 32 33 34 35 36 37 38 39 40 41 42 43 44 45 46 47 48 49 50
000
ASUS43 KTOP 170808
RWRKS

WEATHER ROUNDUP FOR KANSAS
NATIONAL WEATHER SERVICE GOODLAND KS
300 AM CDT TUE OCT 17 2017

NOTE:  "FAIR" INDICATES FEW OR NO CLOUDS BELOW 12,000 FEET WITH NO
SIGNIFICANT WEATHER AND/OR OBSTRUCTIONS TO VISIBILITY.

KSZ001>006-013>018-027>032-041>047-170900-
NORTHWEST KANSAS

CITY           SKY/WX    TMP DP  RH WIND       PRES   REMARKS
GOODLAND       CLOUDY    41  30  65 W7        30.16S
HAYS           CLEAR     47  37  68 S3        30.14R
HILL CITY      CLEAR     51  38  60 W3        30.11S
RUSSELL        CLOUDY    51  40  65 S15       30.12S
$$

KSZ061>065-074>080-084>089-170900-
SOUTHWEST KANSAS

CITY           SKY/WX    TMP DP  RH WIND       PRES   REMARKS
DODGE CITY     CLEAR     48  35  60 S14       30.16F
ELKHART          N/A     51  37  58 SW9         N/A
GARDEN CITY    CLOUDY    40  34  79 S6        30.15S
GREAT BEND     CLEAR     50  38  63 S9        30.16S
LIBERAL        CLEAR     44  37  76 SW10      30.16F
PRATT          CLEAR     46  37  70 S9        30.19S
$$

KSZ066>073-081>083-090>101-170900-
SOUTHEAST KANSAS

CITY           SKY/WX    TMP DP  RH WIND       PRES   REMARKS
CHANUTE        CLOUDY    46  41  82 S7        30.25F
COFFEYVILLE    CLOUDY    45  41  86 CALM      30.27S
HUTCHINSON     CLEAR     49  42  77 S9        30.19F
MEDICINE LODGE   N/A     49  39  68 SE6       30.21S
NEWTON         CLEAR     49  40  71 S9        30.21S
PARSONS        CLOUDY    45  41  86 CALM      30.27F
WICHITA INTL   CLEAR     49  42  77 S10       30.21F
WICHITA JABRA  CLEAR     51  41  68 S10       30.21F
WICHITA MCCONL CLEAR     48  40  73 SW8       30.21F
WINFIELD       CLEAR     47  42  83 S6        30.25S
$$

KSZ007>012-019>026-033>040-048>060-102>105-170900-
NORTHEAST KANSAS

CITY           SKY/WX    TMP DP  RH WIND       PRES   REMARKS
CONCORDIA      CLOUDY    53  40  61 S17       30.12F
EMPORIA        PTCLDY    49  39  68 S9        30.21F
LAWRENCE       MOCLDY    50  42  74 SE6       30.22S
MANHATTAN      PTCLDY    52  42  69 SW7       30.18F
MARYSVILLE     CLEAR     52  41  66 S9        30.14F
OLATHE IND     PTCLDY    48  41  76 S8        30.24S
OLATHE EXE     PTCLDY    48  41  76 S6        30.23S
SALINA         PTCLDY    53  43  68 S10       30.17S
TOPEKA BILLARD MOCLDY    52  42  69 CALM      30.21R
TOPEKA FORBES  CLOUDY    53  42  66 S9        30.20S
$$



USA.gov is the U.S. government's official web portal to all federal, state and local government web resources and services.